| time (UTC) | temp C | wind direction | speed KPH | gust KPH | rain 1hr cm | rain 24hr cm | rain mn cm | humidity % | barometer mb |
| 20260903104150 | 16 | 143 | 0.0 | 0.0 | 0.03 | 0.41 | 0.41 | 92 | 1014.9 |
| 20260903103154 | 16 | 143 | 0.0 | 0.0 | 0.05 | 0.41 | 0.41 | 92 | 1014.9 |
| 20260903102151 | 16 | 143 | 0.0 | 0.0 | 0.05 | 0.41 | 0.41 | 92 | 1014.9 |
| 20260903101617 | 16 | 143 | 0.0 | 0.0 | 0.13 | 0.41 | 0.41 | 92 | 1014.8 |
| 20260903100138 | 16 | 143 | 0.0 | 0.0 | 0.15 | 0.41 | 0.41 | 92 | 1014.8 |
| 20260903095137 | 16 | 143 | 0.0 | 1.6 | 0.18 | 0.41 | 0.41 | 92 | 1014.9 |
| 20260903094611 | 16 | 143 | 0.0 | 3.2 | 0.20 | 0.38 | 0.38 | 91 | 1015.0 |
| 20260903093136 | 16 | 143 | 0.0 | 0.0 | 0.18 | 0.36 | 0.36 | 91 | 1015.0 |
| 20260903092138 | 16 | 143 | 0.0 | 0.0 | 0.18 | 0.36 | 0.36 | 91 | 1015.5 |
| 20260903091131 | 16 | 143 | 0.0 | 0.0 | 0.10 | 0.28 | 0.28 | 91 | 1015.3 |
| 20260903090131 | 16 | 143 | 0.0 | 3.2 | 0.08 | 0.25 | 0.25 | 91 | 1015.3 |
| 20260903085130 | 16 | 176 | 0.0 | 4.8 | 0.08 | 0.18 | 0.23 | 90 | 1015.4 |
| 20260903084130 | 16 | 202 | 0.0 | 3.2 | 0.18 | 0.18 | 0.18 | 90 | 1015.4 |
| 20260903083607 | 16 | 202 | 0.0 | 0.0 | 0.18 | 0.18 | 0.18 | 89 | 1015.4 |
| 20260903082129 | 16 | 203 | 0.0 | 0.0 | 0.18 | 0.18 | 0.18 | 89 | 1015.5 |
| 20260903081129 | 17 | 203 | 0.0 | 0.0 | 0.18 | 0.18 | 0.18 | 88 | 1015.2 |
| 20260903080128 | 17 | 202 | 0.0 | 3.2 | 0.18 | 0.18 | 0.18 | 87 | 1015.2 |
| 20260903075128 | 17 | 301 | 1.6 | 6.4 | 0.10 | 0.10 | 0.13 | 86 | 1015.5 |
| 20260903074128 | 17 | 214 | 0.0 | 6.4 | 0.00 | 0.00 | 0.00 | 86 | 1015.5 |
| 20260903073129 | 17 | 153 | 1.6 | 4.8 | 0.00 | 0.00 | 0.00 | 86 | 1015.5 |
| 20260903072603 | 17 | 191 | 0.0 | 4.8 | 0.00 | 0.00 | 0.00 | 86 | 1015.7 |
| 20260903071125 | 17 | 173 | 0.0 | 6.4 | 0.00 | 0.00 | 0.00 | 86 | 1015.7 |
| 20260903070121 | 17 | 148 | 0.0 | 4.8 | 0.00 | 0.00 | 0.00 | 86 | 1015.7 |
| 20260903065559 | 17 | 169 | 1.6 | 9.7 | 0.00 | 0.00 | 0.00 | 86 | 1016.0 |
| 20260903064120 | 17 | 180 | 3.2 | 11.3 | 0.00 | 0.00 | 0.00 | 86 | 1016.7 |
| 20260903063120 | 17 | 209 | 1.6 | 4.8 | 0.00 | 0.00 | 0.00 | 86 | 1016.7 |
| 20260903062120 | 17 | 153 | 1.6 | 8.0 | 0.00 | 0.00 | 0.00 | 86 | 1017.0 |
| 20260903061120 | 17 | 91 | 0.0 | 6.4 | 0.00 | 0.00 | 0.00 | 86 | 1017.4 |
| 20260903060121 | 17 | 181 | 0.0 | 6.4 | 0.00 | 0.00 | 0.00 | 86 | 1017.4 |
| 20260903055121 | 17 | 191 | 1.6 | 6.4 | 0.00 | 0.00 | 0.00 | 86 | 1017.7 |
| 20260903054104 | 17 | 211 | 0.0 | 6.4 | 0.00 | 0.00 | 0.00 | 86 | 1018.1 |
| 20260903053104 | 17 | 179 | 0.0 | 3.2 | 0.00 | 0.00 | 0.00 | 86 | 1018.1 |
| 20260903052103 | 17 | 224 | 1.6 | 8.0 | 0.00 | 0.00 | 0.00 | 86 | 1017.7 |
| 20260903051535 | 17 | 193 | 1.6 | 6.4 | 0.00 | 0.00 | 0.00 | 86 | 1017.5 |
| 20260903050101 | 17 | 206 | 1.6 | 8.0 | 0.00 | 0.00 | 0.00 | 86 | 1017.5 |
| 20260903045054 | 17 | 138 | 1.6 | 8.0 | 0.00 | 0.00 | 0.00 | 87 | 1017.9 |
| 20260903044054 | 17 | 169 | 0.0 | 4.8 | 0.00 | 0.00 | 0.00 | 86 | 1018.3 |
| 20260903043054 | 17 | 169 | 0.0 | 6.4 | 0.00 | 0.00 | 0.00 | 86 | 1018.3 |
| 20260903043017 | 17 | 185 | 0.0 | 4.8 | 0.00 | 0.00 | 0.00 | 86 | 1018.2 |
| 20260903041057 | 17 | 185 | 0.0 | 3.2 | 0.00 | 0.00 | 0.00 | 86 | 1018.2 |
| 20260903040054 | 17 | 185 | 0.0 | 3.2 | 0.00 | 0.00 | 0.00 | 86 | 1018.2 |
| 20260903040014 | 17 | 188 | 0.0 | 0.0 | 0.00 | 0.00 | 0.00 | 86 | 1018.1 |
| 20260903034048 | 17 | 188 | 0.0 | 0.0 | 0.00 | 0.00 | 0.00 | 85 | 1018.2 |
| 20260903033047 | 17 | 188 | 0.0 | 4.8 | 0.00 | 0.00 | 0.00 | 86 | 1018.2 |
| 20260903032045 | 17 | 189 | 0.0 | 3.2 | 0.00 | 0.00 | 0.00 | 85 | 1018.7 |
| 20260903031043 | 17 | 189 | 0.0 | 4.8 | 0.00 | 0.00 | 0.00 | 85 | 1018.7 |
| 20260903030044 | 17 | 173 | 0.0 | 0.0 | 0.00 | 0.00 | 0.00 | 85 | 1018.7 |
| 20260903025043 | 17 | 173 | 0.0 | 0.0 | 0.00 | 0.00 | 0.00 | 85 | 1019.1 |
| 20260903024042 | 17 | 173 | 0.0 | 0.0 | 0.00 | 0.00 | 0.00 | 85 | 1019.1 |
| 20260903023035 | 17 | 173 | 0.0 | 0.0 | 0.00 | 0.00 | 0.00 | 84 | 1019.1 |
| 20260903022033 | 17 | 173 | 0.0 | 0.0 | 0.00 | 0.00 | 0.00 | 84 | 1019.1 |
| 20260903021033 | 18 | 173 | 0.0 | 0.0 | 0.00 | 0.00 | 0.00 | 84 | 1019.1 |
| 20260903020032 | 18 | 173 | 0.0 | 0.0 | 0.00 | 0.00 | 0.00 | 84 | 1019.1 |
| 20260903015507 | 18 | 173 | 0.0 | 0.0 | 0.00 | 0.00 | 0.00 | 84 | 1019.3 |
| 20260903014031 | 18 | 173 | 1.6 | 6.4 | 0.00 | 0.00 | 0.00 | 83 | 1019.2 |
| 20260903013032 | 18 | 168 | 1.6 | 6.4 | 0.00 | 0.00 | 0.00 | 82 | 1019.2 |
| 20260903012031 | 18 | 231 | 3.2 | 12.9 | 0.00 | 0.00 | 0.00 | 82 | 1018.7 |
| 20260903011508 | 18 | 152 | 3.2 | 8.0 | 0.00 | 0.00 | 0.00 | 82 | 1019.0 |
| 20260903010031 | 18 | 161 | 1.6 | 9.7 | 0.00 | 0.00 | 0.00 | 81 | 1019.0 |
| 20260903005509 | 18 | 140 | 0.0 | 11.3 | 0.00 | 0.00 | 0.00 | 81 | 1019.0 |
| 20260903004030 | 18 | 184 | 1.6 | 11.3 | 0.00 | 0.00 | 0.00 | 80 | 1019.1 |
| 20260903003020 | 18 | 140 | 1.6 | 8.0 | 0.00 | 0.00 | 0.00 | 80 | 1019.1 |
| 20260903002019 | 18 | 208 | 3.2 | 9.7 | 0.00 | 0.00 | 0.00 | 79 | 1019.2 |
| 20260903001020 | 18 | 151 | 0.0 | 4.8 | 0.00 | 0.00 | 0.00 | 78 | 1019.2 |
| 20260903000019 | 18 | 173 | 0.0 | 6.4 | 0.00 | 0.00 | 0.00 | 77 | 1019.2 |
| 20260902235018 | 19 | 187 | 0.0 | 0.0 | 0.00 | 0.00 | 0.00 | 76 | 1019.7 |
| 20260902234019 | 19 | 157 | 0.0 | 0.0 | 0.00 | 0.00 | 0.00 | 75 | 1019.8 |
| 20260902233019 | 19 | 168 | 0.0 | 0.0 | 0.00 | 0.00 | 0.00 | 75 | 1019.8 |
| 20260902232019 | 19 | 152 | 0.0 | 1.6 | 0.00 | 0.00 | 0.00 | 73 | 1019.8 |
| 20260902231020 | 19 | 170 | 1.6 | 6.4 | 0.00 | 0.00 | 0.00 | 73 | 1019.9 |
| 20260902230009 | 19 | 181 | 1.6 | 6.4 | 0.00 | 0.00 | 0.00 | 71 | 1019.9 |
| 20260902225009 | 20 | 184 | 0.0 | 4.8 | 0.00 | 0.00 | 0.00 | 71 | 1019.8 |
| 20260902224008 | 20 | 164 | 0.0 | 0.0 | 0.00 | 0.00 | 0.00 | 74 | 1020.1 |
| 20260902223007 | 20 | 164 | 0.0 | 3.2 | 0.00 | 0.00 | 0.00 | 73 | 1020.1 |
| 20260902222006 | 20 | 301 | 0.0 | 1.6 | 0.00 | 0.00 | 0.00 | 71 | 1020.3 |
| 20260902221451 | 20 | 166 | 1.6 | 8.0 | 0.00 | 0.00 | 0.00 | 71 | 1020.2 |
| 20260902220009 | 20 | 140 | 0.0 | 9.7 | 0.00 | 0.00 | 0.00 | 70 | 1020.0 |
| 20260902215005 | 20 | 157 | 1.6 | 11.3 | 0.00 | 0.00 | 0.00 | 69 | 1020.0 |
| 20260902214005 | 20 | 66 | 0.0 | 4.8 | 0.00 | 0.00 | 0.00 | 69 | 1019.9 |
| 20260902213910 | 20 | 137 | 0.0 | 0.0 | 0.00 | 0.00 | 0.00 | 69 | 1019.9 |
| 20260902212001 | 21 | 123 | 0.0 | 6.4 | 0.00 | 0.00 | 0.00 | 70 | 1019.9 |
| 20260902211002 | 21 | 128 | 1.6 | 11.3 | 0.00 | 0.00 | 0.00 | 69 | 1019.5 |
| 20260902205954 | 21 | 119 | 1.6 | 8.0 | 0.00 | 0.03 | 0.00 | 71 | 1019.5 |
| 20260902205908 | 21 | 125 | 1.6 | 4.8 | 0.00 | 0.03 | 0.00 | 70 | 1019.8 |
| 20260902203955 | 21 | 166 | 0.0 | 4.8 | 0.00 | 0.05 | 0.00 | 70 | 1020.2 |
| 20260902202955 | 21 | 178 | 0.0 | 6.4 | 0.00 | 0.08 | 0.00 | 69 | 1020.2 |
| 20260902202437 | 21 | 51 | 0.0 | 4.8 | 0.00 | 0.10 | 0.00 | 66 | 1020.3 |
| 20260902200953 | 21 | 92 | 1.6 | 12.9 | 0.00 | 0.13 | 0.00 | 65 | 1020.5 |
| 20260902195954 | 21 | 75 | 0.0 | 9.7 | 0.00 | 0.13 | 0.00 | 67 | 1020.4 |
| 20260902194952 | 21 | 107 | 0.0 | 1.6 | 0.00 | 0.18 | 0.00 | 68 | 1020.4 |
| 20260902193951 | 21 | 248 | 0.0 | 8.0 | 0.00 | 0.20 | 0.00 | 66 | 1020.7 |
| 20260902192952 | 22 | 104 | 0.0 | 6.4 | 0.00 | 0.23 | 0.00 | 67 | 1020.8 |
| 20260902191951 | 22 | 145 | 0.0 | 0.0 | 0.00 | 0.28 | 0.00 | 69 | 1020.8 |
| 20260902190951 | 22 | 137 | 0.0 | 4.8 | 0.00 | 0.28 | 0.00 | 69 | 1020.8 |
| 20260902185951 | 22 | 139 | 0.0 | 11.3 | 0.00 | 0.36 | 0.00 | 69 | 1020.6 |
| 20260902184950 | 22 | 112 | 1.6 | 12.9 | 0.00 | 0.46 | 0.00 | 67 | 1020.6 |
| 20260902183951 | 22 | 148 | 1.6 | 11.3 | 0.00 | 0.64 | 0.00 | 66 | 1020.8 |
| 20260902182952 | 22 | 123 | 1.6 | 14.5 | 0.00 | 0.79 | 0.00 | 68 | 1020.7 |
| 20260902181948 | 22 | 9 | 0.0 | 6.4 | 0.00 | 0.97 | 0.00 | 68 | 1020.7 |
| 20260902180950 | 22 | 155 | 0.0 | 8.0 | 0.00 | 1.07 | 0.00 | 71 | 1020.8 |
| 20260902175949 | 22 | 341 | 0.0 | 1.6 | 0.00 | 1.09 | 0.00 | 70 | 1020.8 |
| 20260902174949 | 22 | 66 | 0.0 | 1.6 | 0.00 | 1.09 | 0.00 | 72 | 1020.8 |
| 20260902173948 | 22 | 177 | 0.0 | 6.4 | 0.00 | 1.09 | 0.00 | 72 | 1020.6 |
| 20260902172952 | 22 | 68 | 0.0 | 6.4 | 0.00 | 1.09 | 0.00 | 73 | 1020.8 |
| 20260902171940 | 22 | 168 | 0.0 | 0.0 | 0.00 | 1.09 | 0.00 | 72 | 1020.8 |
| 20260902170938 | 22 | 52 | 1.6 | 11.3 | 0.00 | 1.12 | 0.00 | 70 | 1020.8 |
| 20260902165939 | 22 | 146 | 1.6 | 9.7 | 0.00 | 1.12 | 0.00 | 73 | 1021.0 |
| 20260902164939 | 22 | 256 | 3.2 | 11.3 | 0.00 | 1.14 | 0.00 | 74 | 1021.0 |
| 20260902163938 | 21 | 153 | 1.6 | 11.3 | 0.00 | 1.17 | 0.00 | 76 | 1021.3 |
| 20260902163419 | 21 | 169 | 0.0 | 4.8 | 0.00 | 1.19 | 0.00 | 81 | 1021.4 |
| 20260902161936 | 21 | 146 | 1.6 | 9.7 | 0.00 | 1.19 | 0.00 | 80 | 1021.4 |
| 20260902160937 | 21 | 147 | 3.2 | 9.7 | 0.00 | 1.19 | 0.00 | 81 | 1021.7 |
| 20260902155937 | 21 | 236 | 1.6 | 8.0 | 0.00 | 1.19 | 0.00 | 82 | 1021.8 |
| 20260902155412 | 20 | 58 | 1.6 | 6.4 | 0.00 | 1.19 | 0.00 | 85 | 1021.8 |
| 20260902153938 | 20 | 204 | 1.6 | 6.4 | 0.00 | 1.19 | 0.00 | 85 | 1022.0 |
| 20260902152931 | 20 | 92 | 1.6 | 6.4 | 0.00 | 1.19 | 0.00 | 85 | 1022.0 |
| 20260902151928 | 19 | 154 | 1.6 | 9.7 | 0.00 | 1.19 | 0.00 | 87 | 1022.0 |
| 20260902150929 | 19 | 126 | 0.0 | 4.8 | 0.00 | 1.19 | 0.00 | 91 | 1021.9 |
| 20260902150408 | 18 | 301 | 0.0 | 6.4 | 0.00 | 1.19 | 0.00 | 92 | 1022.1 |
| 20260902144929 | 18 | 39 | 0.0 | 4.8 | 0.00 | 1.19 | 0.00 | 93 | 1022.1 |
| 20260902143914 | 18 | 65 | 0.0 | 0.0 | 0.00 | 1.19 | 0.00 | 94 | 1021.9 |
| 20260902142916 | 18 | 160 | 0.0 | 0.0 | 0.00 | 1.19 | 0.00 | 95 | 1021.8 |
| 20260902141912 | 18 | 301 | 0.0 | 0.0 | 0.00 | 1.19 | 0.00 | 95 | 1021.8 |
| 20260902140912 | 17 | 301 | 0.0 | 3.2 | 0.00 | 1.19 | 0.00 | 95 | 1021.4 |
| 20260902135912 | 17 | 301 | 0.0 | 4.8 | 0.00 | 1.19 | 0.00 | 95 | 1021.3 |
| 20260902134912 | 17 | 113 | 1.6 | 4.8 | 0.00 | 1.19 | 0.00 | 95 | 1021.3 |
| 20260902133910 | 17 | 45 | 0.0 | 4.8 | 0.00 | 1.19 | 0.00 | 95 | 1021.3 |
| 20260902133350 | 17 | 114 | 0.0 | 8.0 | 0.00 | 1.19 | 0.00 | 95 | 1021.2 |
| 20260902131908 | 17 | 46 | 1.6 | 8.0 | 0.00 | 1.19 | 0.00 | 95 | 1021.2 |
| 20260902130909 | 17 | 301 | 0.0 | 3.2 | 0.00 | 1.19 | 0.00 | 95 | 1021.3 |
| 20260902125909 | 16 | 140 | 0.0 | 3.2 | 0.00 | 1.19 | 0.00 | 95 | 1021.4 |
| 20260902124909 | 16 | 141 | 0.0 | 1.6 | 0.00 | 1.24 | 0.00 | 95 | 1021.4 |
| 20260902123908 | 16 | 301 | 0.0 | 0.0 | 0.00 | 1.24 | 0.00 | 95 | 1021.8 |
| 20260902122908 | 16 | 301 | 0.0 | 0.0 | 0.00 | 1.32 | 0.00 | 95 | 1021.5 |
| 20260902121908 | 16 | 301 | 0.0 | 0.0 | 0.00 | 1.42 | 0.00 | 95 | 1021.5 |
| 20260902120908 | 16 | 301 | 0.0 | 0.0 | 0.00 | 1.45 | 0.00 | 95 | 1021.6 |
| 20260902115909 | 16 | 301 | 0.0 | 0.0 | 0.00 | 1.45 | 0.00 | 95 | 1021.8 |
| 20260902114908 | 16 | 301 | 0.0 | 0.0 | 0.00 | 1.47 | 0.00 | 95 | 1021.8 |
| 20260902113909 | 16 | 301 | 0.0 | 0.0 | 0.00 | 1.47 | 0.00 | 95 | 1021.8 |
| 20260902112859 | 16 | 301 | 0.0 | 0.0 | 0.00 | 1.47 | 0.00 | 95 | 1021.5 |
| 20260902111859 | 16 | 141 | 0.0 | 0.0 | 0.00 | 1.47 | 0.00 | 95 | 1021.5 |
| 20260902110858 | 16 | 141 | 0.0 | 0.0 | 0.00 | 1.47 | 0.00 | 95 | 1021.7 |
| 20260902110820 | 16 | 141 | 0.0 | 0.0 | 0.00 | 1.47 | 0.00 | 95 | 1021.3 |
| 20260902104858 | 15 | 141 | 0.0 | 0.0 | 0.00 | 1.47 | 0.00 | 95 | 1021.3 |